User: anonymous   Login
Location: Caltech
(34.1382°N, 118.1253°W)
Time: 06:12:59
(UTC-07:00)
Language:

Meteor 1-11 Rocket - Orbit

View from above orbital plane
View from above orbital plane
View from above satellite
View from above satellite

Ground track
Ground track

The orbit data is extracted from the following two-line orbital elements,

1 05918U 72022B   15085.48965733  .00000001  00000-0 -74083-5 0  9999
2 05918 081.2388 032.9886 0060063 093.0650 267.7394 14.05757598203676
Epoch (UTC): 26 March 2015 11:45:06
Eccentricity: 0.0060063
inclination: 81.2388°
perigee height: 830 km
apogee height: 917 km
right ascension of ascending node: 32.9886°
argument of perigee: 93.0650°
revolutions per day: 14.05757598
mean anomaly at epoch: 267.7394°
orbit number at epoch: 20367

The dashed part of the orbit path shows where the satellite is in the earth's shadow,  

DLR